Regional Weather Roundup
Issued by NWS Goodland, KS

Home | Current Version | Previous Version | Graphics & Text | Print | Product List | Glossary On
Versions: 1 2 3 4 5 6 7 8 9 10 11 12 13 14 15 16 17 18 19 20 21 22 23 24 25 26 27 28 29 30 31 32 33 34 35 36 37 38 39 40 41 42 43 44 45 46 47 48 49 50
000
ASUS43 KGLD 290459
RWRGLD

GOODLAND FORECAST AREA HOURLY WEATHER ROUNDUP
NATIONAL WEATHER SERVICE GOODLAND KS
1100 PM MDT TUE JUL 28 2015

...OFFICIAL OBSERVATIONS...

CITY           SKY/WX    TMP DP  RH WIND       PRES   REMARKS
GOODLAND KS    MOCLDY    61  51  70 N5        30.17S
HILL CITY KS   CLEAR     63  59  87 N7        30.09R
IMPERIAL NEB   CLEAR     62  49  62 CALM      30.17R
MCCOOK NEB     CLEAR     64  52  64 N9        30.12R
AKRON CO       PTCLDY    63  46  54 S7        30.25R
BURLINGTON CO  MOCLDY    65  49  56 NE7       30.22R
LIMON CO       PTCLDY    59  46  62 S5        30.28R
$$

...UNOFFICIAL OBSERVATIONS...

CITY           SKY/WX    TMP DP  RH WIND       PRES   REMARKS
COLBY KS       CLEAR     70  57  64 N7        30.15S
NORTON KS      CLEAR     63  54  72 N10       30.09R
SHARON SPRINGS   N/A     65  58  79 CALM        N/A
KIT CARSON CO    N/A     67  49  53 MISG        N/A
$$


USA.gov is the U.S. government's official web portal to all federal, state and local government web resources and services.